Time,TemperatureF,DewpointF,PressureIn,WindDirection,WindDirectionDegrees,WindSpeedMPH,WindSpeedGustMPH,Humidity,HourlyPrecipIn,Conditions,Clouds,dailyrainin,SoftwareType,DateUTC
2017-08-21 00:04:00,76.3,29.7,-100.00,North,-9999,-999.9,-999.0,18,-99.99,,,-99.99,meteohub,2017-08-21 04:04:00,
2017-08-21 00:09:00,76.1,29.5,-100.00,North,-9999,-999.9,-999.0,18,-99.99,,,-99.99,meteohub,2017-08-21 04:09:00,
2017-08-21 00:14:00,76.1,29.5,-100.00,North,-9999,-999.9,-999.0,18,-99.99,,,-99.99,meteohub,2017-08-21 04:14:00,
2017-08-21 00:19:00,75.9,32.0,-100.00,North,-9999,-999.9,-999.0,20,-99.99,,,-99.99,meteohub,2017-08-21 04:19:00,
2017-08-21 00:24:00,75.7,31.8,-100.00,North,-9999,-999.9,-999.0,20,-99.99,,,-99.99,meteohub,2017-08-21 04:24:00,
2017-08-21 00:29:00,75.7,33.1,-100.00,North,-9999,-999.9,-999.0,21,-99.99,,,-99.99,meteohub,2017-08-21 04:29:00,
2017-08-21 00:34:00,75.6,32.9,-100.00,North,-9999,-999.9,-999.0,21,-99.99,,,-99.99,meteohub,2017-08-21 04:34:00,
2017-08-21 00:40:00,75.4,32.7,-100.00,North,-9999,-999.9,-999.0,21,-99.99,,,-99.99,meteohub,2017-08-21 04:40:00,
2017-08-21 00:45:00,75.0,32.4,-100.00,North,-9999,-999.9,-999.0,21,-99.99,,,-99.99,meteohub,2017-08-21 04:45:00,
2017-08-21 00:50:00,74.8,32.4,-100.00,North,-9999,-999.9,-999.0,21,-99.99,,,-99.99,meteohub,2017-08-21 04:50:00,
2017-08-21 00:55:00,74.8,33.4,-100.00,North,-9999,-999.9,-999.0,22,-99.99,,,-99.99,meteohub,2017-08-21 04:55:00,
2017-08-21 01:00:00,74.8,33.4,-100.00,North,-9999,-999.9,-999.0,22,-99.99,,,-99.99,meteohub,2017-08-21 05:00:00,
2017-08-21 01:05:00,74.7,33.3,-100.00,North,-9999,-999.9,-999.0,22,-99.99,,,-99.99,meteohub,2017-08-21 05:05:00,
2017-08-21 01:10:00,74.7,34.3,-100.00,North,-9999,-999.9,-999.0,23,-99.99,,,-99.99,meteohub,2017-08-21 05:10:00,
2017-08-21 01:15:00,74.7,34.3,-100.00,North,-9999,-999.9,-999.0,23,-99.99,,,-99.99,meteohub,2017-08-21 05:15:00,
2017-08-21 01:16:00,74.7,34.3,-100.00,North,-9999,-999.9,-999.0,23,-99.99,,,-99.99,meteohub,2017-08-21 05:16:00,
2017-08-21 01:21:00,74.7,35.4,-100.00,North,-9999,-999.9,-999.0,24,-99.99,,,-99.99,meteohub,2017-08-21 05:21:00,
2017-08-21 01:26:00,74.7,36.5,-100.00,North,-9999,-999.9,-999.0,25,-99.99,,,-99.99,meteohub,2017-08-21 05:26:00,
2017-08-21 01:31:00,74.5,36.3,-100.00,North,-9999,-999.9,-999.0,25,-99.99,,,-99.99,meteohub,2017-08-21 05:31:00,
2017-08-21 01:36:00,74.5,36.3,-100.00,North,-9999,-999.9,-999.0,25,-99.99,,,-99.99,meteohub,2017-08-21 05:36:00,
2017-08-21 01:41:00,74.5,37.4,-100.00,North,-9999,-999.9,-999.0,26,-99.99,,,-99.99,meteohub,2017-08-21 05:41:00,
2017-08-21 01:46:00,74.3,37.2,-100.00,North,-9999,-999.9,-999.0,26,-99.99,,,-99.99,meteohub,2017-08-21 05:46:00,
2017-08-21 01:51:00,74.3,38.1,-100.00,North,-9999,-999.9,-999.0,27,-99.99,,,-99.99,meteohub,2017-08-21 05:51:00,
2017-08-21 01:56:00,74.1,39.0,-100.00,North,-9999,-999.9,-999.0,28,-99.99,,,-99.99,meteohub,2017-08-21 05:56:00,
2017-08-21 02:01:00,73.9,39.7,-100.00,North,-9999,-999.9,-999.0,29,-99.99,,,-99.99,meteohub,2017-08-21 06:01:00,
2017-08-21 02:06:00,73.9,40.5,-100.00,North,-9999,-999.9,-999.0,30,-99.99,,,-99.99,meteohub,2017-08-21 06:06:00,
2017-08-21 02:12:00,73.9,41.4,-100.00,North,-9999,-999.9,-999.0,31,-99.99,,,-99.99,meteohub,2017-08-21 06:12:00,
2017-08-21 02:17:00,73.9,41.4,-100.00,North,-9999,-999.9,-999.0,31,-99.99,,,-99.99,meteohub,2017-08-21 06:17:00,
2017-08-21 02:22:00,73.9,41.4,-100.00,North,-9999,-999.9,-999.0,31,-99.99,,,-99.99,meteohub,2017-08-21 06:22:00,
2017-08-21 02:27:00,73.9,42.3,-100.00,North,-9999,-999.9,-999.0,32,-99.99,,,-99.99,meteohub,2017-08-21 06:27:00,
2017-08-21 02:32:00,73.9,42.3,-100.00,North,-9999,-999.9,-999.0,32,-99.99,,,-99.99,meteohub,2017-08-21 06:32:00,
2017-08-21 02:37:00,73.9,42.3,-100.00,North,-9999,-999.9,-999.0,32,-99.99,,,-99.99,meteohub,2017-08-21 06:37:00,
2017-08-21 02:42:00,74.1,42.4,-100.00,North,-9999,-999.9,-999.0,32,-99.99,,,-99.99,meteohub,2017-08-21 06:42:00,
2017-08-21 02:47:00,74.3,42.6,-100.00,North,-9999,-999.9,-999.0,32,-99.99,,,-99.99,meteohub,2017-08-21 06:47:00,
2017-08-21 02:52:00,74.5,42.6,-100.00,North,-9999,-999.9,-999.0,32,-99.99,,,-99.99,meteohub,2017-08-21 06:52:00,
2017-08-21 02:57:00,74.5,42.6,-100.00,North,-9999,-999.9,-999.0,32,-99.99,,,-99.99,meteohub,2017-08-21 06:57:00,
2017-08-21 03:02:00,74.5,41.9,-100.00,North,-9999,-999.9,-999.0,31,-99.99,,,-99.99,meteohub,2017-08-21 07:02:00,
2017-08-21 03:07:00,74.3,41.7,-100.00,North,-9999,-999.9,-999.0,31,-99.99,,,-99.99,meteohub,2017-08-21 07:07:00,
2017-08-21 03:12:00,74.3,41.7,-100.00,North,-9999,-999.9,-999.0,31,-99.99,,,-99.99,meteohub,2017-08-21 07:12:00,
2017-08-21 03:17:00,74.1,41.5,-100.00,North,-9999,-999.9,-999.0,31,-99.99,,,-99.99,meteohub,2017-08-21 07:17:00,
2017-08-21 03:22:00,74.1,42.4,-100.00,North,-9999,-999.9,-999.0,32,-99.99,,,-99.99,meteohub,2017-08-21 07:22:00,
2017-08-21 03:27:00,73.9,42.3,-100.00,North,-9999,-999.9,-999.0,32,-99.99,,,-99.99,meteohub,2017-08-21 07:27:00,
2017-08-21 03:32:00,73.9,42.3,-100.00,North,-9999,-999.9,-999.0,32,-99.99,,,-99.99,meteohub,2017-08-21 07:32:00,
2017-08-21 03:37:00,73.9,42.3,-100.00,North,-9999,-999.9,-999.0,32,-99.99,,,-99.99,meteohub,2017-08-21 07:37:00,
2017-08-21 03:42:00,73.9,42.3,-100.00,North,-9999,-999.9,-999.0,32,-99.99,,,-99.99,meteohub,2017-08-21 07:42:00,
2017-08-21 03:47:00,73.9,42.3,-100.00,North,-9999,-999.9,-999.0,32,-99.99,,,-99.99,meteohub,2017-08-21 07:47:00,
2017-08-21 03:52:00,73.9,42.3,-100.00,North,-9999,-999.9,-999.0,32,-99.99,,,-99.99,meteohub,2017-08-21 07:52:00,
2017-08-21 03:57:00,73.9,42.3,-100.00,North,-9999,-999.9,-999.0,32,-99.99,,,-99.99,meteohub,2017-08-21 07:57:00,
2017-08-21 04:02:00,73.9,42.3,-100.00,North,-9999,-999.9,-999.0,32,-99.99,,,-99.99,meteohub,2017-08-21 08:02:00,
2017-08-21 04:07:00,73.8,41.2,-100.00,North,-9999,-999.9,-999.0,31,-99.99,,,-99.99,meteohub,2017-08-21 08:07:00,
2017-08-21 04:12:00,73.6,41.9,-100.00,North,-9999,-999.9,-999.0,32,-99.99,,,-99.99,meteohub,2017-08-21 08:12:00,
2017-08-21 04:17:00,73.8,42.1,-100.00,North,-9999,-999.9,-999.0,32,-99.99,,,-99.99,meteohub,2017-08-21 08:17:00,
2017-08-21 04:22:00,73.6,41.9,-100.00,North,-9999,-999.9,-999.0,32,-99.99,,,-99.99,meteohub,2017-08-21 08:22:00,
2017-08-21 04:27:00,73.6,41.9,-100.00,North,-9999,-999.9,-999.0,32,-99.99,,,-99.99,meteohub,2017-08-21 08:27:00,
2017-08-21 04:32:00,73.4,41.0,-100.00,North,-9999,-999.9,-999.0,31,-99.99,,,-99.99,meteohub,2017-08-21 08:32:00,
2017-08-21 04:38:00,73.4,41.0,-100.00,North,-9999,-999.9,-999.0,31,-99.99,,,-99.99,meteohub,2017-08-21 08:38:00,
2017-08-21 04:43:00,73.6,41.0,-100.00,North,-9999,-999.9,-999.0,31,-99.99,,,-99.99,meteohub,2017-08-21 08:43:00,
2017-08-21 04:48:00,73.4,41.0,-100.00,North,-9999,-999.9,-999.0,31,-99.99,,,-99.99,meteohub,2017-08-21 08:48:00,
2017-08-21 04:53:00,73.4,41.0,-100.00,North,-9999,-999.9,-999.0,31,-99.99,,,-99.99,meteohub,2017-08-21 08:53:00,
2017-08-21 04:54:00,73.2,41.5,-100.00,North,-9999,-999.9,-999.0,32,-99.99,,,-99.99,meteohub,2017-08-21 08:54:00,
2017-08-21 04:59:00,73.2,41.5,-100.00,North,-9999,-999.9,-999.0,32,-99.99,,,-99.99,meteohub,2017-08-21 08:59:00,
2017-08-21 05:04:00,73.0,41.4,-100.00,North,-9999,-999.9,-999.0,32,-99.99,,,-99.99,meteohub,2017-08-21 09:04:00,
2017-08-21 05:09:00,73.2,41.5,-100.00,North,-9999,-999.9,-999.0,32,-99.99,,,-99.99,meteohub,2017-08-21 09:09:00,
2017-08-21 05:14:00,73.0,42.3,-100.00,North,-9999,-999.9,-999.0,33,-99.99,,,-99.99,meteohub,2017-08-21 09:14:00,
2017-08-21 05:20:00,72.9,41.4,-100.00,North,-9999,-999.9,-999.0,32,-99.99,,,-99.99,meteohub,2017-08-21 09:20:00,
2017-08-21 05:25:00,72.7,41.2,-100.00,North,-9999,-999.9,-999.0,32,-99.99,,,-99.99,meteohub,2017-08-21 09:25:00,
2017-08-21 05:30:00,72.5,41.7,-100.00,North,-9999,-999.9,-999.0,33,-99.99,,,-99.99,meteohub,2017-08-21 09:30:00,
2017-08-21 05:35:00,72.5,41.7,-100.00,North,-9999,-999.9,-999.0,33,-99.99,,,-99.99,meteohub,2017-08-21 09:35:00,
2017-08-21 05:40:00,72.5,41.7,-100.00,North,-9999,-999.9,-999.0,33,-99.99,,,-99.99,meteohub,2017-08-21 09:40:00,
2017-08-21 05:45:00,72.3,42.4,-100.00,North,-9999,-999.9,-999.0,34,-99.99,,,-99.99,meteohub,2017-08-21 09:45:00,
2017-08-21 05:50:00,72.1,42.3,-100.00,North,-9999,-999.9,-999.0,34,-99.99,,,-99.99,meteohub,2017-08-21 09:50:00,
2017-08-21 05:55:00,72.0,42.1,-100.00,North,-9999,-999.9,-999.0,34,-99.99,,,-99.99,meteohub,2017-08-21 09:55:00,
2017-08-21 06:00:00,72.0,42.8,-100.00,North,-9999,-999.9,-999.0,35,-99.99,,,-99.99,meteohub,2017-08-21 10:00:00,
2017-08-21 06:05:00,72.0,42.8,-100.00,North,-9999,-999.9,-999.0,35,-99.99,,,-99.99,meteohub,2017-08-21 10:05:00,
2017-08-21 06:10:00,71.8,42.6,-100.00,North,-9999,-999.9,-999.0,35,-99.99,,,-99.99,meteohub,2017-08-21 10:10:00,
2017-08-21 06:15:00,71.8,42.6,-100.00,North,-9999,-999.9,-999.0,35,-99.99,,,-99.99,meteohub,2017-08-21 10:15:00,
2017-08-21 06:20:00,71.8,43.3,-100.00,North,-9999,-999.9,-999.0,36,-99.99,,,-99.99,meteohub,2017-08-21 10:20:00,
2017-08-21 06:26:00,71.6,43.2,-100.00,North,-9999,-999.9,-999.0,36,-99.99,,,-99.99,meteohub,2017-08-21 10:26:00,
2017-08-21 06:31:00,71.4,43.7,-100.00,North,-9999,-999.9,-999.0,37,-99.99,,,-99.99,meteohub,2017-08-21 10:31:00,
2017-08-21 06:36:00,71.2,43.7,-100.00,North,-9999,-999.9,-999.0,37,-99.99,,,-99.99,meteohub,2017-08-21 10:36:00,
2017-08-21 06:41:00,71.1,43.5,-100.00,North,-9999,-999.9,-999.0,37,-99.99,,,-99.99,meteohub,2017-08-21 10:41:00,
2017-08-21 06:46:00,71.1,44.2,-100.00,North,-9999,-999.9,-999.0,38,-99.99,,,-99.99,meteohub,2017-08-21 10:46:00,
2017-08-21 06:51:00,71.1,44.2,-100.00,North,-9999,-999.9,-999.0,38,-99.99,,,-99.99,meteohub,2017-08-21 10:51:00,
2017-08-21 06:56:00,71.1,44.8,-100.00,North,-9999,-999.9,-999.0,39,-99.99,,,-99.99,meteohub,2017-08-21 10:56:00,
2017-08-21 07:01:00,71.1,44.8,-100.00,North,-9999,-999.9,-999.0,39,-99.99,,,-99.99,meteohub,2017-08-21 11:01:00,
2017-08-21 07:06:00,71.1,44.8,-100.00,North,-9999,-999.9,-999.0,39,-99.99,,,-99.99,meteohub,2017-08-21 11:06:00,
2017-08-21 07:11:00,71.1,44.8,-100.00,North,-9999,-999.9,-999.0,39,-99.99,,,-99.99,meteohub,2017-08-21 11:11:00,
2017-08-21 07:16:00,71.1,44.8,-100.00,North,-9999,-999.9,-999.0,39,-99.99,,,-99.99,meteohub,2017-08-21 11:16:00,
2017-08-21 07:21:00,71.2,45.0,-100.00,North,-9999,-999.9,-999.0,39,-99.99,,,-99.99,meteohub,2017-08-21 11:21:00,
2017-08-21 07:27:00,71.4,45.1,-100.00,North,-9999,-999.9,-999.0,39,-99.99,,,-99.99,meteohub,2017-08-21 11:27:00,
2017-08-21 07:32:00,71.4,45.1,-100.00,North,-9999,-999.9,-999.0,39,-99.99,,,-99.99,meteohub,2017-08-21 11:32:00,
2017-08-21 07:37:00,71.4,45.1,-100.00,North,-9999,-999.9,-999.0,39,-99.99,,,-99.99,meteohub,2017-08-21 11:37:00,
2017-08-21 07:42:00,71.4,45.9,-100.00,North,-9999,-999.9,-999.0,40,-99.99,,,-99.99,meteohub,2017-08-21 11:42:00,
2017-08-21 07:47:00,71.4,45.9,-100.00,North,-9999,-999.9,-999.0,40,-99.99,,,-99.99,meteohub,2017-08-21 11:47:00,
2017-08-21 07:52:00,71.6,46.0,-100.00,North,-9999,-999.9,-999.0,40,-99.99,,,-99.99,meteohub,2017-08-21 11:52:00,
2017-08-21 07:57:00,72.0,46.4,-100.00,North,-9999,-999.9,-999.0,40,-99.99,,,-99.99,meteohub,2017-08-21 11:57:00,
2017-08-21 08:02:00,72.3,46.0,-100.00,North,-9999,-999.9,-999.0,39,-99.99,,,-99.99,meteohub,2017-08-21 12:02:00,
2017-08-21 08:07:00,72.5,45.5,-100.00,North,-9999,-999.9,-999.0,38,-99.99,,,-99.99,meteohub,2017-08-21 12:07:00,
2017-08-21 08:12:00,73.0,43.7,-100.00,North,-9999,-999.9,-999.0,35,-99.99,,,-99.99,meteohub,2017-08-21 12:12:00,
2017-08-21 08:17:00,73.4,42.6,-100.00,North,-9999,-999.9,-999.0,33,-99.99,,,-99.99,meteohub,2017-08-21 12:17:00,
2017-08-21 08:22:00,73.9,41.4,-100.00,North,-9999,-999.9,-999.0,31,-99.99,,,-99.99,meteohub,2017-08-21 12:22:00,
2017-08-21 08:27:00,74.7,39.4,-100.00,North,-9999,-999.9,-999.0,28,-99.99,,,-99.99,meteohub,2017-08-21 12:27:00,
2017-08-21 08:32:00,75.0,37.8,-100.00,North,-9999,-999.9,-999.0,26,-99.99,,,-99.99,meteohub,2017-08-21 12:32:00,
2017-08-21 08:37:00,75.2,34.9,-100.00,North,-9999,-999.9,-999.0,23,-99.99,,,-99.99,meteohub,2017-08-21 12:37:00,
2017-08-21 08:42:00,75.4,35.1,-100.00,North,-9999,-999.9,-999.0,23,-99.99,,,-99.99,meteohub,2017-08-21 12:42:00,
2017-08-21 08:47:00,75.6,34.0,-100.00,North,-9999,-999.9,-999.0,22,-99.99,,,-99.99,meteohub,2017-08-21 12:47:00,
2017-08-21 08:52:00,75.7,33.1,-100.00,North,-9999,-999.9,-999.0,21,-99.99,,,-99.99,meteohub,2017-08-21 12:52:00,
2017-08-21 08:57:00,76.3,33.4,-100.00,North,-9999,-999.9,-999.0,21,-99.99,,,-99.99,meteohub,2017-08-21 12:57:00,
2017-08-21 09:02:00,76.8,34.0,-100.00,North,-9999,-999.9,-999.0,21,-99.99,,,-99.99,meteohub,2017-08-21 13:02:00,
2017-08-21 09:07:00,77.0,30.2,-100.00,North,-9999,-999.9,-999.0,18,-99.99,,,-99.99,meteohub,2017-08-21 13:07:00,
2017-08-21 09:12:00,77.4,30.6,-100.00,North,-9999,-999.9,-999.0,18,-99.99,,,-99.99,meteohub,2017-08-21 13:12:00,
2017-08-21 09:17:00,78.1,31.1,-100.00,North,-9999,-999.9,-999.0,18,-99.99,,,-99.99,meteohub,2017-08-21 13:17:00,
2017-08-21 09:22:00,79.3,27.7,-100.00,North,-9999,-999.9,-999.0,15,-99.99,,,-99.99,meteohub,2017-08-21 13:22:00,
2017-08-21 09:27:00,80.6,27.0,-100.00,North,-9999,-999.9,-999.0,14,-99.99,,,-99.99,meteohub,2017-08-21 13:27:00,
2017-08-21 09:32:00,80.8,23.4,-100.00,North,-9999,-999.9,-999.0,12,-99.99,,,-99.99,meteohub,2017-08-21 13:32:00,
2017-08-21 09:37:00,81.0,23.5,-100.00,North,-9999,-999.9,-999.0,12,-99.99,,,-99.99,meteohub,2017-08-21 13:37:00,
2017-08-21 09:42:00,81.1,23.7,-100.00,North,-9999,-999.9,-999.0,12,-99.99,,,-99.99,meteohub,2017-08-21 13:42:00,
2017-08-21 09:47:00,82.4,22.6,-100.00,North,-9999,-999.9,-999.0,11,-99.99,,,-99.99,meteohub,2017-08-21 13:47:00,
2017-08-21 09:52:00,82.9,23.0,-100.00,North,-9999,-999.9,-999.0,11,-99.99,,,-99.99,meteohub,2017-08-21 13:52:00,
2017-08-21 09:58:00,83.1,23.2,-100.00,North,-9999,-999.9,-999.0,11,-99.99,,,-99.99,meteohub,2017-08-21 13:58:00,
2017-08-21 10:03:00,83.7,23.5,-100.00,North,-9999,-999.9,-999.0,11,-99.99,,,-99.99,meteohub,2017-08-21 14:03:00,
2017-08-21 10:08:00,84.2,24.1,-100.00,North,-9999,-999.9,-999.0,11,-99.99,,,-99.99,meteohub,2017-08-21 14:08:00,
2017-08-21 10:13:00,84.7,24.4,-100.00,North,-9999,-999.9,-999.0,11,-99.99,,,-99.99,meteohub,2017-08-21 14:13:00,
2017-08-21 10:18:00,85.5,25.0,-100.00,North,-9999,-999.9,-999.0,11,-99.99,,,-99.99,meteohub,2017-08-21 14:18:00,
2017-08-21 10:23:00,86.4,25.7,-100.00,North,-9999,-999.9,-999.0,11,-99.99,,,-99.99,meteohub,2017-08-21 14:23:00,
2017-08-21 10:28:00,86.9,26.1,-100.00,North,-9999,-999.9,-999.0,11,-99.99,,,-99.99,meteohub,2017-08-21 14:28:00,
2017-08-21 10:33:00,87.4,26.4,-100.00,North,-9999,-999.9,-999.0,11,-99.99,,,-99.99,meteohub,2017-08-21 14:33:00,
2017-08-21 10:38:00,87.8,24.4,-100.00,North,-9999,-999.9,-999.0,10,-99.99,,,-99.99,meteohub,2017-08-21 14:38:00,
2017-08-21 10:43:00,88.5,25.0,-100.00,North,-9999,-999.9,-999.0,10,-99.99,,,-99.99,meteohub,2017-08-21 14:43:00,
2017-08-21 10:48:00,88.0,24.6,-100.00,North,-9999,-999.9,-999.0,10,-99.99,,,-99.99,meteohub,2017-08-21 14:48:00,
2017-08-21 10:53:00,88.7,25.2,-100.00,North,-9999,-999.9,-999.0,10,-99.99,,,-99.99,meteohub,2017-08-21 14:53:00,
2017-08-21 10:58:00,89.2,25.5,-100.00,North,-9999,-999.9,-999.0,10,-99.99,,,-99.99,meteohub,2017-08-21 14:58:00,
2017-08-21 11:03:00,89.2,25.5,-100.00,North,-9999,-999.9,-999.0,10,-99.99,,,-99.99,meteohub,2017-08-21 15:03:00,
2017-08-21 11:09:00,90.1,26.2,-100.00,North,-9999,-999.9,-999.0,10,-99.99,,,-99.99,meteohub,2017-08-21 15:09:00,
2017-08-21 11:14:00,89.4,25.7,-100.00,North,-9999,-999.9,-999.0,10,-99.99,,,-99.99,meteohub,2017-08-21 15:14:00,
2017-08-21 11:19:00,89.8,25.9,-100.00,North,-9999,-999.9,-999.0,10,-99.99,,,-99.99,meteohub,2017-08-21 15:19:00,
2017-08-21 11:24:00,89.6,25.9,-100.00,North,-9999,-999.9,-999.0,10,-99.99,,,-99.99,meteohub,2017-08-21 15:24:00,
2017-08-21 11:29:00,90.0,26.1,-100.00,North,-9999,-999.9,-999.0,10,-99.99,,,-99.99,meteohub,2017-08-21 15:29:00,
2017-08-21 11:34:00,90.3,26.4,-100.00,North,-9999,-999.9,-999.0,10,-99.99,,,-99.99,meteohub,2017-08-21 15:34:00,
2017-08-21 11:39:00,90.3,26.4,-100.00,North,-9999,-999.9,-999.0,10,-99.99,,,-99.99,meteohub,2017-08-21 15:39:00,
2017-08-21 11:44:00,89.6,25.9,-100.00,North,-9999,-999.9,-999.0,10,-99.99,,,-99.99,meteohub,2017-08-21 15:44:00,
2017-08-21 11:49:00,89.6,25.9,-100.00,North,-9999,-999.9,-999.0,10,-99.99,,,-99.99,meteohub,2017-08-21 15:49:00,
2017-08-21 11:54:00,89.4,25.7,-100.00,North,-9999,-999.9,-999.0,10,-99.99,,,-99.99,meteohub,2017-08-21 15:54:00,
2017-08-21 11:59:00,90.0,26.1,-100.00,North,-9999,-999.9,-999.0,10,-99.99,,,-99.99,meteohub,2017-08-21 15:59:00,
2017-08-21 12:04:00,90.1,26.2,-100.00,North,-9999,-999.9,-999.0,10,-99.99,,,-99.99,meteohub,2017-08-21 16:04:00,
2017-08-21 12:09:00,90.7,26.6,-100.00,North,-9999,-999.9,-999.0,10,-99.99,,,-99.99,meteohub,2017-08-21 16:09:00,
2017-08-21 12:15:00,90.5,26.6,-100.00,North,-9999,-999.9,-999.0,10,-99.99,,,-99.99,meteohub,2017-08-21 16:15:00,
2017-08-21 12:20:00,90.1,26.2,-100.00,North,-9999,-999.9,-999.0,10,-99.99,,,-99.99,meteohub,2017-08-21 16:20:00,
2017-08-21 12:25:00,90.1,26.2,-100.00,North,-9999,-999.9,-999.0,10,-99.99,,,-99.99,meteohub,2017-08-21 16:25:00,
2017-08-21 12:30:00,90.5,26.6,-100.00,North,-9999,-999.9,-999.0,10,-99.99,,,-99.99,meteohub,2017-08-21 16:30:00,
2017-08-21 12:35:00,92.1,25.2,-100.00,North,-9999,-999.9,-999.0,9,-99.99,,,-99.99,meteohub,2017-08-21 16:35:00,
2017-08-21 12:40:00,91.9,25.0,-100.00,North,-9999,-999.9,-999.0,9,-99.99,,,-99.99,meteohub,2017-08-21 16:40:00,
2017-08-21 12:45:00,91.9,25.0,-100.00,North,-9999,-999.9,-999.0,9,-99.99,,,-99.99,meteohub,2017-08-21 16:45:00,
2017-08-21 12:50:00,92.1,25.2,-100.00,North,-9999,-999.9,-999.0,9,-99.99,,,-99.99,meteohub,2017-08-21 16:50:00,
2017-08-21 12:55:00,92.7,25.5,-100.00,North,-9999,-999.9,-999.0,9,-99.99,,,-99.99,meteohub,2017-08-21 16:55:00,
2017-08-21 13:00:00,92.5,25.5,-100.00,North,-9999,-999.9,-999.0,9,-99.99,,,-99.99,meteohub,2017-08-21 17:00:00,
2017-08-21 13:05:00,92.1,25.2,-100.00,North,-9999,-999.9,-999.0,9,-99.99,,,-99.99,meteohub,2017-08-21 17:05:00,
2017-08-21 13:11:00,91.8,25.0,-100.00,North,-9999,-999.9,-999.0,9,-99.99,,,-99.99,meteohub,2017-08-21 17:11:00,
2017-08-21 13:16:00,91.9,25.0,-100.00,North,-9999,-999.9,-999.0,9,-99.99,,,-99.99,meteohub,2017-08-21 17:16:00,
2017-08-21 13:21:00,92.1,25.2,-100.00,North,-9999,-999.9,-999.0,9,-99.99,,,-99.99,meteohub,2017-08-21 17:21:00,
2017-08-21 13:26:00,92.8,25.7,-100.00,North,-9999,-999.9,-999.0,9,-99.99,,,-99.99,meteohub,2017-08-21 17:26:00,
2017-08-21 13:32:00,92.7,25.5,-100.00,North,-9999,-999.9,-999.0,9,-99.99,,,-99.99,meteohub,2017-08-21 17:32:00,
2017-08-21 13:37:00,92.3,25.3,-100.00,North,-9999,-999.9,-999.0,9,-99.99,,,-99.99,meteohub,2017-08-21 17:37:00,
2017-08-21 13:42:00,91.9,25.0,-100.00,North,-9999,-999.9,-999.0,9,-99.99,,,-99.99,meteohub,2017-08-21 17:42:00,
2017-08-21 13:47:00,92.3,25.3,-100.00,North,-9999,-999.9,-999.0,9,-99.99,,,-99.99,meteohub,2017-08-21 17:47:00,
2017-08-21 13:52:00,91.8,25.0,-100.00,North,-9999,-999.9,-999.0,9,-99.99,,,-99.99,meteohub,2017-08-21 17:52:00,
2017-08-21 13:57:00,91.6,24.8,-100.00,North,-9999,-999.9,-999.0,9,-99.99,,,-99.99,meteohub,2017-08-21 17:57:00,
2017-08-21 14:02:00,90.9,26.8,-100.00,North,-9999,-999.9,-999.0,10,-99.99,,,-99.99,meteohub,2017-08-21 18:02:00,
2017-08-21 14:07:00,90.3,26.4,-100.00,North,-9999,-999.9,-999.0,10,-99.99,,,-99.99,meteohub,2017-08-21 18:07:00,
2017-08-21 14:12:00,90.1,26.2,-100.00,North,-9999,-999.9,-999.0,10,-99.99,,,-99.99,meteohub,2017-08-21 18:12:00,
2017-08-21 14:17:00,89.6,25.9,-100.00,North,-9999,-999.9,-999.0,10,-99.99,,,-99.99,meteohub,2017-08-21 18:17:00,
2017-08-21 14:22:00,89.1,25.3,-100.00,North,-9999,-999.9,-999.0,10,-99.99,,,-99.99,meteohub,2017-08-21 18:22:00,
2017-08-21 14:27:00,88.5,25.0,-100.00,North,-9999,-999.9,-999.0,10,-99.99,,,-99.99,meteohub,2017-08-21 18:27:00,
2017-08-21 14:32:00,88.0,24.6,-100.00,North,-9999,-999.9,-999.0,10,-99.99,,,-99.99,meteohub,2017-08-21 18:32:00,
2017-08-21 14:37:00,88.0,24.6,-100.00,North,-9999,-999.9,-999.0,10,-99.99,,,-99.99,meteohub,2017-08-21 18:37:00,
2017-08-21 14:43:00,88.2,24.8,-100.00,North,-9999,-999.9,-999.0,10,-99.99,,,-99.99,meteohub,2017-08-21 18:43:00,
2017-08-21 14:48:00,88.3,24.8,-100.00,North,-9999,-999.9,-999.0,10,-99.99,,,-99.99,meteohub,2017-08-21 18:48:00,
2017-08-21 14:53:00,88.0,24.6,-100.00,North,-9999,-999.9,-999.0,10,-99.99,,,-99.99,meteohub,2017-08-21 18:53:00,
2017-08-21 14:58:00,88.2,24.8,-100.00,North,-9999,-999.9,-999.0,10,-99.99,,,-99.99,meteohub,2017-08-21 18:58:00,
2017-08-21 15:03:00,87.8,24.4,-100.00,North,-9999,-999.9,-999.0,10,-99.99,,,-99.99,meteohub,2017-08-21 19:03:00,
2017-08-21 15:08:00,87.4,26.4,-100.00,North,-9999,-999.9,-999.0,11,-99.99,,,-99.99,meteohub,2017-08-21 19:08:00,
2017-08-21 15:13:00,87.4,26.4,-100.00,North,-9999,-999.9,-999.0,11,-99.99,,,-99.99,meteohub,2017-08-21 19:13:00,
2017-08-21 15:18:00,87.4,26.4,-100.00,North,-9999,-999.9,-999.0,11,-99.99,,,-99.99,meteohub,2017-08-21 19:18:00,
2017-08-21 15:23:00,87.4,26.4,-100.00,North,-9999,-999.9,-999.0,11,-99.99,,,-99.99,meteohub,2017-08-21 19:23:00,
2017-08-21 15:28:00,87.3,26.4,-100.00,North,-9999,-999.9,-999.0,11,-99.99,,,-99.99,meteohub,2017-08-21 19:28:00,
2017-08-21 15:33:00,87.1,26.2,-100.00,North,-9999,-999.9,-999.0,11,-99.99,,,-99.99,meteohub,2017-08-21 19:33:00,
2017-08-21 15:38:00,86.7,25.9,-100.00,North,-9999,-999.9,-999.0,11,-99.99,,,-99.99,meteohub,2017-08-21 19:38:00,
2017-08-21 15:44:00,86.2,25.5,-100.00,North,-9999,-999.9,-999.0,11,-99.99,,,-99.99,meteohub,2017-08-21 19:44:00,
2017-08-21 15:49:00,86.2,25.5,-100.00,North,-9999,-999.9,-999.0,11,-99.99,,,-99.99,meteohub,2017-08-21 19:49:00,
2017-08-21 15:54:00,86.0,25.3,-100.00,North,-9999,-999.9,-999.0,11,-99.99,,,-99.99,meteohub,2017-08-21 19:54:00,
2017-08-21 15:59:00,85.6,25.2,-100.00,North,-9999,-999.9,-999.0,11,-99.99,,,-99.99,meteohub,2017-08-21 19:59:00,
2017-08-21 16:04:00,85.3,24.8,-100.00,North,-9999,-999.9,-999.0,11,-99.99,,,-99.99,meteohub,2017-08-21 20:04:00,
2017-08-21 16:09:00,85.1,24.6,-100.00,North,-9999,-999.9,-999.0,11,-99.99,,,-99.99,meteohub,2017-08-21 20:09:00,
2017-08-21 16:14:00,85.1,24.6,-100.00,North,-9999,-999.9,-999.0,11,-99.99,,,-99.99,meteohub,2017-08-21 20:14:00,
2017-08-21 16:19:00,85.1,24.6,-100.00,North,-9999,-999.9,-999.0,11,-99.99,,,-99.99,meteohub,2017-08-21 20:19:00,
2017-08-21 16:24:00,85.1,24.6,-100.00,North,-9999,-999.9,-999.0,11,-99.99,,,-99.99,meteohub,2017-08-21 20:24:00,
2017-08-21 16:29:00,85.1,24.6,-100.00,North,-9999,-999.9,-999.0,11,-99.99,,,-99.99,meteohub,2017-08-21 20:29:00,
2017-08-21 16:34:00,84.9,24.6,-100.00,North,-9999,-999.9,-999.0,11,-99.99,,,-99.99,meteohub,2017-08-21 20:34:00,
2017-08-21 16:39:00,84.6,24.3,-100.00,North,-9999,-999.9,-999.0,11,-99.99,,,-99.99,meteohub,2017-08-21 20:39:00,
2017-08-21 16:45:00,84.2,24.1,-100.00,North,-9999,-999.9,-999.0,11,-99.99,,,-99.99,meteohub,2017-08-21 20:45:00,
2017-08-21 16:50:00,84.0,23.9,-100.00,North,-9999,-999.9,-999.0,11,-99.99,,,-99.99,meteohub,2017-08-21 20:50:00,
2017-08-21 16:55:00,83.8,23.7,-100.00,North,-9999,-999.9,-999.0,11,-99.99,,,-99.99,meteohub,2017-08-21 20:55:00,
2017-08-21 17:00:00,83.7,23.5,-100.00,North,-9999,-999.9,-999.0,11,-99.99,,,-99.99,meteohub,2017-08-21 21:00:00,
2017-08-21 17:05:00,83.5,23.4,-100.00,North,-9999,-999.9,-999.0,11,-99.99,,,-99.99,meteohub,2017-08-21 21:05:00,
2017-08-21 17:10:00,83.5,23.4,-100.00,North,-9999,-999.9,-999.0,11,-99.99,,,-99.99,meteohub,2017-08-21 21:10:00,
2017-08-21 17:15:00,82.9,23.0,-100.00,North,-9999,-999.9,-999.0,11,-99.99,,,-99.99,meteohub,2017-08-21 21:15:00,
2017-08-21 17:20:00,82.6,22.8,-100.00,North,-9999,-999.9,-999.0,11,-99.99,,,-99.99,meteohub,2017-08-21 21:20:00,
2017-08-21 17:25:00,82.0,24.4,-100.00,North,-9999,-999.9,-999.0,12,-99.99,,,-99.99,meteohub,2017-08-21 21:25:00,
2017-08-21 17:30:00,81.7,24.1,-100.00,North,-9999,-999.9,-999.0,12,-99.99,,,-99.99,meteohub,2017-08-21 21:30:00,
2017-08-21 17:35:00,80.6,23.4,-100.00,North,-9999,-999.9,-999.0,12,-99.99,,,-99.99,meteohub,2017-08-21 21:35:00,
2017-08-21 17:40:00,79.3,22.3,-100.00,North,-9999,-999.9,-999.0,12,-99.99,,,-99.99,meteohub,2017-08-21 21:40:00,
2017-08-21 17:46:00,79.2,27.5,-100.00,North,-9999,-999.9,-999.0,15,-99.99,,,-99.99,meteohub,2017-08-21 21:46:00,
2017-08-21 17:51:00,79.7,28.0,-100.00,North,-9999,-999.9,-999.0,15,-99.99,,,-99.99,meteohub,2017-08-21 21:51:00,
2017-08-21 17:56:00,79.3,27.7,-100.00,North,-9999,-999.9,-999.0,15,-99.99,,,-99.99,meteohub,2017-08-21 21:56:00,
2017-08-21 18:01:00,78.8,30.4,-100.00,North,-9999,-999.9,-999.0,17,-99.99,,,-99.99,meteohub,2017-08-21 22:01:00,
2017-08-21 18:06:00,78.3,34.0,-100.00,North,-9999,-999.9,-999.0,20,-99.99,,,-99.99,meteohub,2017-08-21 22:06:00,
2017-08-21 18:11:00,77.9,34.9,-100.00,North,-9999,-999.9,-999.0,21,-99.99,,,-99.99,meteohub,2017-08-21 22:11:00,
2017-08-21 18:16:00,77.7,34.7,-100.00,North,-9999,-999.9,-999.0,21,-99.99,,,-99.99,meteohub,2017-08-21 22:16:00,
2017-08-21 18:21:00,77.9,34.9,-100.00,North,-9999,-999.9,-999.0,21,-99.99,,,-99.99,meteohub,2017-08-21 22:21:00,
2017-08-21 18:26:00,78.1,34.9,-100.00,North,-9999,-999.9,-999.0,21,-99.99,,,-99.99,meteohub,2017-08-21 22:26:00,
2017-08-21 18:31:00,78.3,35.1,-100.00,North,-9999,-999.9,-999.0,21,-99.99,,,-99.99,meteohub,2017-08-21 22:31:00,
2017-08-21 18:37:00,78.8,35.6,-100.00,North,-9999,-999.9,-999.0,21,-99.99,,,-99.99,meteohub,2017-08-21 22:37:00,
2017-08-21 18:42:00,79.3,34.7,-100.00,North,-9999,-999.9,-999.0,20,-99.99,,,-99.99,meteohub,2017-08-21 22:42:00,
2017-08-21 18:47:00,79.5,30.9,-100.00,North,-9999,-999.9,-999.0,17,-99.99,,,-99.99,meteohub,2017-08-21 22:47:00,
2017-08-21 18:52:00,79.7,31.1,-100.00,North,-9999,-999.9,-999.0,17,-99.99,,,-99.99,meteohub,2017-08-21 22:52:00,
2017-08-21 18:57:00,79.7,31.1,-100.00,North,-9999,-999.9,-999.0,17,-99.99,,,-99.99,meteohub,2017-08-21 22:57:00,
2017-08-21 19:02:00,79.7,31.1,-100.00,North,-9999,-999.9,-999.0,17,-99.99,,,-99.99,meteohub,2017-08-21 23:02:00,
2017-08-21 19:07:00,79.7,31.1,-100.00,North,-9999,-999.9,-999.0,17,-99.99,,,-99.99,meteohub,2017-08-21 23:07:00,
2017-08-21 19:12:00,79.7,31.1,-100.00,North,-9999,-999.9,-999.0,17,-99.99,,,-99.99,meteohub,2017-08-21 23:12:00,
2017-08-21 19:17:00,79.9,31.1,-100.00,North,-9999,-999.9,-999.0,17,-99.99,,,-99.99,meteohub,2017-08-21 23:17:00,
2017-08-21 19:22:00,79.7,28.0,-100.00,North,-9999,-999.9,-999.0,15,-99.99,,,-99.99,meteohub,2017-08-21 23:22:00,
2017-08-21 19:27:00,79.9,28.0,-100.00,North,-9999,-999.9,-999.0,15,-99.99,,,-99.99,meteohub,2017-08-21 23:27:00,
2017-08-21 19:32:00,79.9,28.0,-100.00,North,-9999,-999.9,-999.0,15,-99.99,,,-99.99,meteohub,2017-08-21 23:32:00,
2017-08-21 19:37:00,79.9,28.0,-100.00,North,-9999,-999.9,-999.0,15,-99.99,,,-99.99,meteohub,2017-08-21 23:37:00,
2017-08-21 19:42:00,79.9,28.0,-100.00,North,-9999,-999.9,-999.0,15,-99.99,,,-99.99,meteohub,2017-08-21 23:42:00,
2017-08-21 19:47:00,79.7,28.0,-100.00,North,-9999,-999.9,-999.0,15,-99.99,,,-99.99,meteohub,2017-08-21 23:47:00,
2017-08-21 19:52:00,79.3,27.7,-100.00,North,-9999,-999.9,-999.0,15,-99.99,,,-99.99,meteohub,2017-08-21 23:52:00,
2017-08-21 19:57:00,79.2,30.6,-100.00,North,-9999,-999.9,-999.0,17,-99.99,,,-99.99,meteohub,2017-08-21 23:57:00,
2017-08-21 20:02:00,79.0,30.4,-100.00,North,-9999,-999.9,-999.0,17,-99.99,,,-99.99,meteohub,2017-08-22 00:02:00,
2017-08-21 20:07:00,78.8,34.3,-100.00,North,-9999,-999.9,-999.0,20,-99.99,,,-99.99,meteohub,2017-08-22 00:07:00,
2017-08-21 20:12:00,78.4,35.2,-100.00,North,-9999,-999.9,-999.0,21,-99.99,,,-99.99,meteohub,2017-08-22 00:12:00,
2017-08-21 20:17:00,78.3,36.3,-100.00,North,-9999,-999.9,-999.0,22,-99.99,,,-99.99,meteohub,2017-08-22 00:17:00,
2017-08-21 20:22:00,77.9,37.0,-100.00,North,-9999,-999.9,-999.0,23,-99.99,,,-99.99,meteohub,2017-08-22 00:22:00,
2017-08-21 20:27:00,77.7,37.0,-100.00,North,-9999,-999.9,-999.0,23,-99.99,,,-99.99,meteohub,2017-08-22 00:27:00,
2017-08-21 20:32:00,77.7,38.1,-100.00,North,-9999,-999.9,-999.0,24,-99.99,,,-99.99,meteohub,2017-08-22 00:32:00,
2017-08-21 20:37:00,77.5,39.9,-100.00,North,-9999,-999.9,-999.0,26,-99.99,,,-99.99,meteohub,2017-08-22 00:37:00,
2017-08-21 20:42:00,77.5,41.0,-100.00,North,-9999,-999.9,-999.0,27,-99.99,,,-99.99,meteohub,2017-08-22 00:42:00,
2017-08-21 20:47:00,77.5,41.9,-100.00,North,-9999,-999.9,-999.0,28,-99.99,,,-99.99,meteohub,2017-08-22 00:47:00,
2017-08-21 20:52:00,77.7,42.1,-100.00,North,-9999,-999.9,-999.0,28,-99.99,,,-99.99,meteohub,2017-08-22 00:52:00,
2017-08-21 20:57:00,77.7,41.0,-100.00,North,-9999,-999.9,-999.0,27,-99.99,,,-99.99,meteohub,2017-08-22 00:57:00,
2017-08-21 21:02:00,77.5,41.0,-100.00,North,-9999,-999.9,-999.0,27,-99.99,,,-99.99,meteohub,2017-08-22 01:02:00,
2017-08-21 21:07:00,77.4,41.7,-100.00,North,-9999,-999.9,-999.0,28,-99.99,,,-99.99,meteohub,2017-08-22 01:07:00,
2017-08-21 21:12:00,77.2,43.3,-100.00,North,-9999,-999.9,-999.0,30,-99.99,,,-99.99,meteohub,2017-08-22 01:12:00,
2017-08-21 21:17:00,77.2,43.3,-100.00,North,-9999,-999.9,-999.0,30,-99.99,,,-99.99,meteohub,2017-08-22 01:17:00,
2017-08-21 21:23:00,77.0,43.2,-100.00,North,-9999,-999.9,-999.0,30,-99.99,,,-99.99,meteohub,2017-08-22 01:23:00,
2017-08-21 21:28:00,77.0,43.2,-100.00,North,-9999,-999.9,-999.0,30,-99.99,,,-99.99,meteohub,2017-08-22 01:28:00,
2017-08-21 21:33:00,76.8,43.9,-100.00,North,-9999,-999.9,-999.0,31,-99.99,,,-99.99,meteohub,2017-08-22 01:33:00,
2017-08-21 21:38:00,76.6,43.7,-100.00,North,-9999,-999.9,-999.0,31,-99.99,,,-99.99,meteohub,2017-08-22 01:38:00,
2017-08-21 21:43:00,76.5,43.5,-100.00,North,-9999,-999.9,-999.0,31,-99.99,,,-99.99,meteohub,2017-08-22 01:43:00,
2017-08-21 21:48:00,76.5,43.5,-100.00,North,-9999,-999.9,-999.0,31,-99.99,,,-99.99,meteohub,2017-08-22 01:48:00,
2017-08-21 21:53:00,76.3,43.3,-100.00,North,-9999,-999.9,-999.0,31,-99.99,,,-99.99,meteohub,2017-08-22 01:53:00,
2017-08-21 21:58:00,76.3,44.2,-100.00,North,-9999,-999.9,-999.0,32,-99.99,,,-99.99,meteohub,2017-08-22 01:58:00,
2017-08-21 22:03:00,76.3,44.2,-100.00,North,-9999,-999.9,-999.0,32,-99.99,,,-99.99,meteohub,2017-08-22 02:03:00,
2017-08-21 22:08:00,76.3,44.2,-100.00,North,-9999,-999.9,-999.0,32,-99.99,,,-99.99,meteohub,2017-08-22 02:08:00,
2017-08-21 22:13:00,76.3,44.2,-100.00,North,-9999,-999.9,-999.0,32,-99.99,,,-99.99,meteohub,2017-08-22 02:13:00,